SCP
0 0 0 0 0 0 0 0 0 0 0 0 0 0 0 0 0 0 0 0 0 0 0 0 0 0 0 0 0 0 0 0 0 0 0 0 0 0 0 0 0 0 0 0
0 0 0 0 0 0 0 0 0 0 0 0 0 0 0 0 0 0 0 0 0 0 0 0 0 0 0 0 0 0 0 0 0 0 0 0 0 0 0 0 0 0 0 0
0 0 0 0 0 0 0 0 0 0 0 0 0 0 0 0 0 0 0 0 0 0 0 0 0 0 0 0 0 0 0 0 0 0 0 0 0 0 0 0 0 0 0 0
0 0 0 0 0 0 0 0 0 0 0 0 0 0 0 0 0 0 0 0 0 0 0 0 0 0 0 0 0 0 0 0 0 0 0 0 0 0 0 0 0 0 0 0
0 0 0 0 0 0 0 0 0 0 0 0 0 0 0 0 0 0 0 0 0 0 0 0 0 0 0 0 0 0 0 0 0 0 0 0 0 0 0 0 0 0 0 0
0 0 0 0 -0 0 0 0 0 0 0 0 0 0 0 0 0 0 0 0 0 0 0 0 0 0 0 0 0 0 0 0 0 0 0 0 0 0 0 0 0 0 0 0
0 0 0 0 0 0 0 0 0 0 0 0 0 0 0 0 0 0 0 0 0 0 0 0 0 0 0 0 0 0 0 0 0 0 0 0 0 0 0 0 0 0 0 0
0 0 0 0 0 0 0 0 0 0 0 0 0 0 0 0 0 0 0 0 0 0 0 0 0 0 0 0 0 0 0 0 0 0 0 0 0 0 0 0 0 0 0 0
0 0 0 0 0 0 0 0 0 0 0 0 0 0 0 0 0 0 0 0 0 0 0 0 0 0 0 0 0 0 0 0 0 0 0 0 0 0 0 0 0 0 0 0
0 0 0 0 0 0 -0 0 0 0 0 0 0 0 0 0 0 0 0 0 0 0 0 0 0 0 0 0 0 0 0 0 0 0 0 0 0 0 0 0 0 0 0 0
0 0 0 0 0 0 0 0 0 0 0 0 0 0 0 0 0 0 0 0 0 0 0 0 0 0 0 0 0 0 0 0 0 0 0 0 0 0 0 0 0 0 0 0
0 0 0 0 0 0 0 0 0 0 0 0 0 0 0 0 0 0 0 0 0 0 0 0 0 0 0 0 0 0 0 0 0 0 0 0 0 0 0 0 0 0 0 0
0 0 0 0 0 0 0 0 0 0 0 0 0 0 0 0 0 0 0 0 0 0 0 0 0 0 0 0 0 0 0 0 0 0 0 0 0 0 0 0 0 0 0 0
0 0 0 0 0 0 0 0 0 0 0 0 0 0 0 0 0 0 0 0 0 0 0 0 0 0 0 0 0 0 0 0 0 0 0 0 0 0 0 0 0 0 0 0
0 0 0 0 0 0 0 0 0 0 0 0 0 0 0 -0 0 0 0 0 0 0 0 0 0 0 0 0 0 0 0 0 0 0 0 0 0 0 0 0 0 0 0 0
0 0 0 0 0 0 0 0 0 0 -0 0 -0 -0 -0 0 0 0 0 0 0 0 0 0 0 0 0 0 0 0 0 0 0 0 0 0 0 0 0 0 0 0 0 0
0 0 0 0 0 0 0 0 0 0 0 0 0 0 0 0 0 0 0 0 0 0 0 0 0 0 0 0 0 0 0 0 0 0 0 0 0 0 0 0 0 0 0 0
0 0 0 0 0 0 0 0 0 0 0 0 0 0 0 0 0 0 0 0 0 0 0 0 0 0 0 0 0 0 0 0 0 0 0 0 0 0 0 0 0 0 0 0
0 0 0 0 0 0 0 0 0 0 0 0 0 0 0 0 0 0 0 0 0 0 0 0 0 0 0 0 0 0 0 0 0 0 0 0 0 0 0 0 0 0 0 0
0 0 0 0 0 0 0 0 0 0 0 0 0 0 0 0 0 0 0 0 0 0 0 0 0 0 0 0 0 0 0 0 0 0 0 0 0 0 0 0 0 0 0 0
0 0 0 0 0 0 0 0 0 0 0 0 0 0 0 0 0 0 0 0 0 0 0 0 0 0 0 0 0 0 0 0 0 0 0 0 0 0 0 0 0 0 0 0
0 0 0 0 0 0 0 0 0 0 0 0 0 0 0 0 0 0 0 0 0 0 0 0 0 0 0 0 0 0 0 0 0 0 0 0 0 0 0 0 0 0 0 0
0 0 0 0 0 0 0 0 0 0 0 0 0 0 0 0 0 0 0 0 0 0 0 0 0 0 0 0 0 0 0 0 0 0 0 0 0 0 0 0 0 0 0 0
0 0 0 0 0 0 0 0 0 0 0 0 0 0 0 0 0 0 0 0 0 0 0 0 0 0 0 0 0 0 0 0 0 0 0 0 0 0 0 0 0 0 0 0
0 0 0 0 0 0 0 0 0 0 0 0 0 0 0 0 0 0 0 0 0 0 0 0 0 0 0 0 0 0 0 0 0 0 0 0 0 0 0 0 0 0 0 0
0 0 0 0 0 0 0 0 0 0 0 0 0 0 0 0 0 0 0 0 0 0 0 0 0 0 0 0 0 0 0 0 0 0 0 0 0 0 0 0 0 0 0 0
0 0 0 0 0 0 0 0 0 0 0 0 0 0 0 0 0 0 0 0 0 0 0 0 0 0 0 0 0 0 0 0 0 0 0 0 0 0 0 0 0 0 0 0
Wind_Speed_500mb
22 7 3 11 12 30 35 25 20 5 27 23 13 15 21 29 31 27 25 28 31 29 29 26 23 21 21 21 20 24 29 34 38 44 50 55 60 61 56 51 48 48 50 50
8 14 10 15 25 25 34 31 31 35 48 16 30 31 20 30 25 24 27 27 27 29 31 30 25 20 18 18 17 19 23 28 33 39 47 55 58 58 58 54 49 47 49 50
9 2 9 26 44 37 18 16 25 31 38 9 6 7 18 35 29 29 28 27 29 28 28 28 23 17 19 16 14 16 17 22 28 35 43 50 54 56 61 59 54 52 51 52
3 8 13 5 5 24 47 38 40 28 19 10 9 13 27 39 44 38 24 18 20 24 27 27 23 19 22 16 14 14 12 15 21 28 36 43 49 56 59 59 57 56 54 53
8 12 17 16 10 11 17 22 38 40 48 27 15 7 32 20 19 11 11 11 12 18 24 27 23 23 25 19 16 15 12 12 16 21 29 36 43 48 52 54 57 57 56 54
7 9 12 1 3 5 2 16 16 34 28 14 21 8 4 14 11 8 13 18 19 22 27 31 27 28 28 23 18 17 16 11 9 16 23 28 32 35 40 44 48 51 55 56
13 12 12 8 10 22 6 6 4 3 18 28 12 3 15 8 7 12 17 22 26 30 31 28 31 32 30 28 20 19 20 14 7 10 15 20 24 27 29 32 36 42 48 52
8 12 18 14 10 14 1 7 5 13 17 26 10 1 9 17 23 24 26 27 31 37 39 38 37 39 36 34 22 23 23 19 11 8 11 14 18 22 25 27 29 33 38 42
19 15 2 36 3 33 7 7 7 5 6 13 14 25 32 32 31 34 34 31 34 40 43 47 47 45 45 33 30 28 27 24 19 13 12 11 13 15 19 23 28 31 34 36
7 15 25 24 48 30 31 24 12 11 16 22 29 27 35 37 35 31 29 31 35 39 49 53 54 52 48 42 37 36 33 30 27 22 17 14 12 11 12 15 20 23 26 29
9 14 10 28 53 50 49 43 37 30 24 23 27 34 39 41 36 33 33 32 33 41 49 53 54 55 52 51 47 42 39 36 33 30 25 21 17 14 11 10 11 14 17 21
11 15 13 5 29 46 36 26 18 19 23 25 32 40 39 43 41 43 43 44 47 45 47 50 55 56 58 58 57 50 46 43 40 37 32 28 23 19 16 14 10 8 10 12
7 33 37 17 20 29 26 20 17 22 28 31 33 40 39 48 47 53 58 57 57 55 54 52 53 54 58 63 64 62 54 49 45 43 40 35 30 26 21 18 15 14 14 15
52 18 10 25 22 31 34 22 24 34 38 39 37 41 44 50 59 58 59 52 48 54 59 59 57 58 55 63 68 68 62 56 52 48 44 41 38 32 28 23 18 16 14 13
59 61 52 43 28 29 33 38 48 50 44 46 43 47 54 59 62 58 52 50 49 57 58 57 60 61 57 61 69 73 70 66 60 55 50 46 42 38 33 27 23 21 19 17
59 66 66 59 54 56 56 55 54 51 53 50 54 58 56 54 54 56 53 50 51 54 54 51 57 55 57 59 65 72 74 71 65 61 55 51 47 43 39 34 30 27 25 21
46 34 50 59 63 57 52 42 38 53 61 60 58 55 51 48 51 52 50 46 49 50 50 51 49 51 55 57 60 69 74 76 71 66 63 57 52 48 43 39 35 32 28 25
69 64 51 40 34 30 32 41 51 56 52 47 47 45 45 45 47 47 45 43 42 43 43 41 41 47 51 52 55 62 70 74 74 72 68 63 57 51 47 43 41 38 33 29
55 56 51 50 43 43 48 47 42 38 37 39 41 40 39 38 39 38 37 36 35 35 29 29 33 40 43 47 47 54 64 70 71 71 70 64 60 56 51 48 46 42 37 35
37 39 43 47 44 38 34 31 29 28 30 29 28 27 25 24 26 25 23 19 21 24 26 25 24 25 29 35 38 43 53 60 65 65 67 65 62 59 55 52 47 46 43 41
27 27 27 26 23 17 15 14 12 11 13 16 16 16 15 16 15 14 8 6 18 17 18 13 14 12 15 25 33 37 43 51 55 55 55 55 55 54 51 50 47 45 45 44
16 15 14 11 8 4 4 7 10 12 14 16 18 16 13 12 13 20 24 19 18 17 13 9 6 7 10 15 24 29 31 34 36 37 37 37 38 40 40 39 39 39 38 39
17 16 16 17 17 18 18 17 18 20 21 21 23 25 29 30 24 16 16 26 23 21 17 17 16 12 9 6 11 13 14 17 20 22 23 24 26 29 32 33 33 32 33 35
23 24 25 25 23 22 22 27 26 28 29 29 27 26 25 30 30 31 27 22 22 22 25 26 20 16 13 16 15 14 14 13 13 14 15 17 17 18 19 19 20 20 19 18
27 28 28 26 25 30 28 28 28 31 31 35 37 38 37 37 37 35 29 28 26 26 29 28 25 23 26 26 25 24 23 21 18 15 13 12 10 8 6 5 4 4 6 8
28 29 28 28 31 31 31 29 34 37 37 41 43 43 42 42 41 39 39 39 39 39 41 41 41 40 40 38 37 36 34 32 28 26 23 21 18 15 13 11 9 6 5 4
33 34 34 38 37 35 36 39 40 43 43 44 47 46 45 44 44 44 44 45 46 47 47 47 46 45 44 43 42 40 38 37 35 32 30 28 25 24 21 18 15 12 10 8
Wind_Direction_500mb
247 246 232 263 226 206 212 224 219 162 222 233 243 225 224 255 268 259 253 253 253 245 239 239 247 261 280 301 323 338 349 352 358 2 2 3 4 359 353 349 345 341 339 336
265 200 200 267 250 217 220 234 252 267 272 242 247 241 223 257 248 249 249 257 254 241 229 231 236 253 275 291 318 332 346 353 359 6 9 9 9 5 4 2 360 358 357 353
251 153 222 268 241 223 205 213 208 228 241 131 221 184 227 265 253 250 268 267 254 238 227 224 234 253 269 276 302 319 340 349 359 9 12 14 14 10 13 13 12 12 11 9
115 169 225 329 298 235 215 229 217 250 248 197 195 220 257 258 266 266 264 260 254 233 224 224 230 250 263 270 288 303 321 340 356 11 16 17 19 19 18 19 22 20 18 19
203 217 316 289 182 175 193 251 229 230 247 246 241 278 271 246 226 216 238 260 255 235 230 229 232 249 256 259 270 280 291 319 344 3 15 15 20 21 21 23 27 30 28 25
169 225 220 65 105 86 185 272 214 217 232 179 150 193 177 161 177 212 256 259 250 236 232 231 233 243 249 250 256 267 271 294 329 356 13 14 18 19 22 26 32 34 35 35
196 237 281 239 152 118 217 328 13 184 168 164 180 225 138 174 232 270 282 272 256 247 245 239 237 243 248 248 250 256 263 271 289 337 1 6 15 16 23 27 29 36 43 43
176 219 257 133 97 188 79 352 106 124 147 174 176 146 300 285 276 282 285 279 266 252 248 243 242 245 245 250 243 247 256 258 254 286 324 352 6 14 18 27 31 35 41 45
194 204 129 190 257 205 182 161 116 92 193 210 245 274 290 291 292 290 285 280 271 259 252 246 243 246 244 246 244 244 249 253 251 256 283 321 346 6 14 22 31 36 40 44
152 223 232 227 235 242 224 231 253 280 269 269 273 278 291 294 294 294 297 285 275 266 256 250 245 247 250 240 240 242 242 246 250 248 255 272 295 329 360 18 29 34 39 43
257 269 284 246 240 236 240 250 268 272 275 271 275 289 298 296 293 293 297 297 288 276 267 261 252 249 247 241 237 239 240 240 244 247 252 261 273 293 317 347 13 25 33 38
221 190 212 240 241 226 218 214 242 256 268 271 278 290 294 291 290 291 295 293 284 280 274 267 257 250 246 241 237 237 236 237 241 247 250 254 259 267 285 299 316 335 356 10
222 232 220 222 172 176 212 244 262 274 280 281 287 288 286 288 290 291 291 288 282 278 275 269 264 255 248 242 238 236 236 238 237 239 245 247 251 257 266 271 287 304 319 332
218 214 223 222 225 237 267 264 278 301 295 292 297 298 295 292 292 290 288 290 284 275 267 260 255 254 250 243 238 237 235 236 237 240 241 245 248 249 252 259 267 275 282 290
237 231 238 257 252 255 268 266 286 299 306 306 298 294 297 297 291 291 288 288 282 274 271 263 254 250 250 244 239 237 234 233 234 237 239 242 245 249 252 256 261 267 275 282
238 240 243 251 256 268 273 277 288 293 305 301 299 301 297 292 291 291 292 292 282 277 279 268 259 256 252 247 241 236 236 235 234 236 238 241 244 247 250 253 255 260 268 278
235 237 240 252 264 270 276 286 284 293 297 299 296 294 294 295 293 295 296 291 279 275 276 270 264 255 253 249 243 239 235 235 234 235 236 238 242 246 250 251 254 258 262 267
244 249 254 262 270 275 275 283 291 292 292 291 289 292 295 296 297 298 300 295 290 283 279 278 268 257 251 244 241 239 237 236 235 235 237 238 241 243 245 249 252 256 261 264
253 254 258 263 271 280 285 288 288 289 289 290 293 296 297 300 299 301 304 309 306 299 289 277 270 265 253 245 240 237 236 235 235 235 238 241 243 245 246 248 252 255 257 260
253 253 258 265 270 272 277 282 291 294 296 302 305 308 315 312 312 314 319 323 324 317 308 285 273 263 246 230 235 239 238 236 237 236 237 240 242 245 249 252 254 257 258 258
221 230 235 239 246 257 276 290 305 318 338 346 354 358 2 358 353 357 353 336 354 343 340 320 289 280 254 236 228 230 232 234 237 238 240 243 246 248 251 254 256 257 258 259
184 192 194 194 189 165 94 64 51 42 40 43 48 50 42 43 51 37 37 31 18 15 3 360 350 299 262 243 226 228 232 234 236 238 241 244 246 249 253 255 256 258 256 254
132 131 130 128 120 106 94 80 68 61 61 63 61 59 54 50 51 55 49 38 35 26 24 38 44 46 56 135 167 182 192 202 211 218 221 226 232 236 241 245 249 252 256 260
109 109 110 108 105 105 94 79 74 71 71 72 70 71 68 67 62 61 56 45 41 42 54 55 54 58 82 103 123 141 153 167 183 195 205 218 223 234 238 241 245 248 251 251
102 106 109 111 107 93 92 90 90 85 82 82 79 76 74 73 70 69 69 68 66 69 71 69 68 74 82 87 94 99 101 102 102 106 109 110 113 118 131 153 181 215 242 256
107 105 103 102 101 101 99 101 97 92 89 85 82 77 75 74 75 76 75 75 75 74 74 72 70 71 74 75 76 77 78 79 79 78 79 80 83 87 88 87 87 89 87 80
98 101 103 102 101 102 103 101 99 95 92 88 87 85 84 83 82 82 80 79 77 75 76 76 75 74 74 75 75 75 76 77 77 77 78 80 81 81 81 79 76 70 60 44
Wind_Speed_850mb
22 7 3 11 12 30 35 25 20 5 27 23 13 15 21 29 31 27 25 28 31 29 29 26 23 21 21 21 20 24 29 34 38 44 50 55 60 61 56 51 48 48 50 50
8 14 10 15 25 25 34 31 31 35 48 16 30 31 20 30 25 24 27 27 27 29 31 30 25 20 18 18 17 19 23 28 33 39 47 55 58 58 58 54 49 47 49 50
9 2 9 26 44 37 18 16 25 31 38 9 6 7 18 35 29 29 28 27 29 28 28 28 23 17 19 16 14 16 17 22 28 35 43 50 54 56 61 59 54 52 51 52
3 8 13 5 5 24 47 38 40 28 19 10 9 13 27 39 44 38 24 18 20 24 27 27 23 19 22 16 14 14 12 15 21 28 36 43 49 56 59 59 57 56 54 53
8 12 17 16 10 11 17 22 38 40 48 27 15 7 32 20 19 11 11 11 12 18 24 27 23 23 25 19 16 15 12 12 16 21 29 36 43 48 52 54 57 57 56 54
7 9 12 1 3 5 2 16 16 34 28 14 21 8 4 14 11 8 13 18 19 22 27 31 27 28 28 23 18 17 16 11 9 16 23 28 32 35 40 44 48 51 55 56
13 12 12 8 10 22 6 6 4 3 18 28 12 3 15 8 7 12 17 22 26 30 31 28 31 32 30 28 20 19 20 14 7 10 15 20 24 27 29 32 36 42 48 52
8 12 18 14 10 14 1 7 5 13 17 26 10 1 9 17 23 24 26 27 31 37 39 38 37 39 36 34 22 23 23 19 11 8 11 14 18 22 25 27 29 33 38 42
19 15 2 36 3 33 7 7 7 5 6 13 14 25 32 32 31 34 34 31 34 40 43 47 47 45 45 33 30 28 27 24 19 13 12 11 13 15 19 23 28 31 34 36
7 15 25 24 48 30 31 24 12 11 16 22 29 27 35 37 35 31 29 31 35 39 49 53 54 52 48 42 37 36 33 30 27 22 17 14 12 11 12 15 20 23 26 29
9 14 10 28 53 50 49 43 37 30 24 23 27 34 39 41 36 33 33 32 33 41 49 53 54 55 52 51 47 42 39 36 33 30 25 21 17 14 11 10 11 14 17 21
11 15 13 5 29 46 36 26 18 19 23 25 32 40 39 43 41 43 43 44 47 45 47 50 55 56 58 58 57 50 46 43 40 37 32 28 23 19 16 14 10 8 10 12
7 33 37 17 20 29 26 20 17 22 28 31 33 40 39 48 47 53 58 57 57 55 54 52 53 54 58 63 64 62 54 49 45 43 40 35 30 26 21 18 15 14 14 15
52 18 10 25 22 31 34 22 24 34 38 39 37 41 44 50 59 58 59 52 48 54 59 59 57 58 55 63 68 68 62 56 52 48 44 41 38 32 28 23 18 16 14 13
59 61 52 43 28 29 33 38 48 50 44 46 43 47 54 59 62 58 52 50 49 57 58 57 60 61 57 61 69 73 70 66 60 55 50 46 42 38 33 27 23 21 19 17
59 66 66 59 54 56 56 55 54 51 53 50 54 58 56 54 54 56 53 50 51 54 54 51 57 55 57 59 65 72 74 71 65 61 55 51 47 43 39 34 30 27 25 21
46 34 50 59 63 57 52 42 38 53 61 60 58 55 51 48 51 52 50 46 49 50 50 51 49 51 55 57 60 69 74 76 71 66 63 57 52 48 43 39 35 32 28 25
69 64 51 40 34 30 32 41 51 56 52 47 47 45 45 45 47 47 45 43 42 43 43 41 41 47 51 52 55 62 70 74 74 72 68 63 57 51 47 43 41 38 33 29
55 56 51 50 43 43 48 47 42 38 37 39 41 40 39 38 39 38 37 36 35 35 29 29 33 40 43 47 47 54 64 70 71 71 70 64 60 56 51 48 46 42 37 35
37 39 43 47 44 38 34 31 29 28 30 29 28 27 25 24 26 25 23 19 21 24 26 25 24 25 29 35 38 43 53 60 65 65 67 65 62 59 55 52 47 46 43 41
27 27 27 26 23 17 15 14 12 11 13 16 16 16 15 16 15 14 8 6 18 17 18 13 14 12 15 25 33 37 43 51 55 55 55 55 55 54 51 50 47 45 45 44
16 15 14 11 8 4 4 7 10 12 14 16 18 16 13 12 13 20 24 19 18 17 13 9 6 7 10 15 24 29 31 34 36 37 37 37 38 40 40 39 39 39 38 39
17 16 16 17 17 18 18 17 18 20 21 21 23 25 29 30 24 16 16 26 23 21 17 17 16 12 9 6 11 13 14 17 20 22 23 24 26 29 32 33 33 32 33 35
23 24 25 25 23 22 22 27 26 28 29 29 27 26 25 30 30 31 27 22 22 22 25 26 20 16 13 16 15 14 14 13 13 14 15 17 17 18 19 19 20 20 19 18
27 28 28 26 25 30 28 28 28 31 31 35 37 38 37 37 37 35 29 28 26 26 29 28 25 23 26 26 25 24 23 21 18 15 13 12 10 8 6 5 4 4 6 8
28 29 28 28 31 31 31 29 34 37 37 41 43 43 42 42 41 39 39 39 39 39 41 41 41 40 40 38 37 36 34 32 28 26 23 21 18 15 13 11 9 6 5 4
33 34 34 38 37 35 36 39 40 43 43 44 47 46 45 44 44 44 44 45 46 47 47 47 46 45 44 43 42 40 38 37 35 32 30 28 25 24 21 18 15 12 10 8
Wind_Direction_850mb
247 246 232 263 226 206 212 224 219 162 222 233 243 225 224 255 268 259 253 253 253 245 239 239 247 261 280 301 323 338 349 352 358 2 2 3 4 359 353 349 345 341 339 336
265 200 200 267 250 217 220 234 252 267 272 242 247 241 223 257 248 249 249 257 254 241 229 231 236 253 275 291 318 332 346 353 359 6 9 9 9 5 4 2 360 358 357 353
251 153 222 268 241 223 205 213 208 228 241 131 221 184 227 265 253 250 268 267 254 238 227 224 234 253 269 276 302 319 340 349 359 9 12 14 14 10 13 13 12 12 11 9
115 169 225 329 298 235 215 229 217 250 248 197 195 220 257 258 266 266 264 260 254 233 224 224 230 250 263 270 288 303 321 340 356 11 16 17 19 19 18 19 22 20 18 19
203 217 316 289 182 175 193 251 229 230 247 246 241 278 271 246 226 216 238 260 255 235 230 229 232 249 256 259 270 280 291 319 344 3 15 15 20 21 21 23 27 30 28 25
169 225 220 65 105 86 185 272 214 217 232 179 150 193 177 161 177 212 256 259 250 236 232 231 233 243 249 250 256 267 271 294 329 356 13 14 18 19 22 26 32 34 35 35
196 237 281 239 152 118 217 328 13 184 168 164 180 225 138 174 232 270 282 272 256 247 245 239 237 243 248 248 250 256 263 271 289 337 1 6 15 16 23 27 29 36 43 43
176 219 257 133 97 188 79 352 106 124 147 174 176 146 300 285 276 282 285 279 266 252 248 243 242 245 245 250 243 247 256 258 254 286 324 352 6 14 18 27 31 35 41 45
194 204 129 190 257 205 182 161 116 92 193 210 245 274 290 291 292 290 285 280 271 259 252 246 243 246 244 246 244 244 249 253 251 256 283 321 346 6 14 22 31 36 40 44
152 223 232 227 235 242 224 231 253 280 269 269 273 278 291 294 294 294 297 285 275 266 256 250 245 247 250 240 240 242 242 246 250 248 255 272 295 329 360 18 29 34 39 43
257 269 284 246 240 236 240 250 268 272 275 271 275 289 298 296 293 293 297 297 288 276 267 261 252 249 247 241 237 239 240 240 244 247 252 261 273 293 317 347 13 25 33 38
221 190 212 240 241 226 218 214 242 256 268 271 278 290 294 291 290 291 295 293 284 280 274 267 257 250 246 241 237 237 236 237 241 247 250 254 259 267 285 299 316 335 356 10
222 232 220 222 172 176 212 244 262 274 280 281 287 288 286 288 290 291 291 288 282 278 275 269 264 255 248 242 238 236 236 238 237 239 245 247 251 257 266 271 287 304 319 332
218 214 223 222 225 237 267 264 278 301 295 292 297 298 295 292 292 290 288 290 284 275 267 260 255 254 250 243 238 237 235 236 237 240 241 245 248 249 252 259 267 275 282 290
237 231 238 257 252 255 268 266 286 299 306 306 298 294 297 297 291 291 288 288 282 274 271 263 254 250 250 244 239 237 234 233 234 237 239 242 245 249 252 256 261 267 275 282
238 240 243 251 256 268 273 277 288 293 305 301 299 301 297 292 291 291 292 292 282 277 279 268 259 256 252 247 241 236 236 235 234 236 238 241 244 247 250 253 255 260 268 278
235 237 240 252 264 270 276 286 284 293 297 299 296 294 294 295 293 295 296 291 279 275 276 270 264 255 253 249 243 239 235 235 234 235 236 238 242 246 250 251 254 258 262 267
244 249 254 262 270 275 275 283 291 292 292 291 289 292 295 296 297 298 300 295 290 283 279 278 268 257 251 244 241 239 237 236 235 235 237 238 241 243 245 249 252 256 261 264
253 254 258 263 271 280 285 288 288 289 289 290 293 296 297 300 299 301 304 309 306 299 289 277 270 265 253 245 240 237 236 235 235 235 238 241 243 245 246 248 252 255 257 260
253 253 258 265 270 272 277 282 291 294 296 302 305 308 315 312 312 314 319 323 324 317 308 285 273 263 246 230 235 239 238 236 237 236 237 240 242 245 249 252 254 257 258 258
221 230 235 239 246 257 276 290 305 318 338 346 354 358 2 358 353 357 353 336 354 343 340 320 289 280 254 236 228 230 232 234 237 238 240 243 246 248 251 254 256 257 258 259
184 192 194 194 189 165 94 64 51 42 40 43 48 50 42 43 51 37 37 31 18 15 3 360 350 299 262 243 226 228 232 234 236 238 241 244 246 249 253 255 256 258 256 254
132 131 130 128 120 106 94 80 68 61 61 63 61 59 54 50 51 55 49 38 35 26 24 38 44 46 56 135 167 182 192 202 211 218 221 226 232 236 241 245 249 252 256 260
109 109 110 108 105 105 94 79 74 71 71 72 70 71 68 67 62 61 56 45 41 42 54 55 54 58 82 103 123 141 153 167 183 195 205 218 223 234 238 241 245 248 251 251
102 106 109 111 107 93 92 90 90 85 82 82 79 76 74 73 70 69 69 68 66 69 71 69 68 74 82 87 94 99 101 102 102 106 109 110 113 118 131 153 181 215 242 256
107 105 103 102 101 101 99 101 97 92 89 85 82 77 75 74 75 76 75 75 75 74 74 72 70 71 74 75 76 77 78 79 79 78 79 80 83 87 88 87 87 89 87 80
98 101 103 102 101 102 103 101 99 95 92 88 87 85 84 83 82 82 80 79 77 75 76 76 75 74 74 75 75 75 76 77 77 77 78 80 81 81 81 79 76 70 60 44